Location: Antioch
(38.0049°N, 121.8058°W)
Time: 19:06:51
(UTC+00:00)

USA 59 Rocket - Pass Details

Date: 11 February 2026
Orbit: 369 x 1670 km, 63.3° (Epoch: 10 March)

Event Time Altitude Azimuth Distance (km) Brightness Sun altitude
Exits shadow 13:11:23 17° 12° (NNE) 1,154 1.6 -22.2°
Drops below altitude 10° 13:12:13 10° 18° (NNE) 1,477 2.2 -22.1°
Sets 13:14:08 0° 26° (NNE) 2,273 3.3 -21.7°
